FW1669 Weather Reports


time (UTC)temp
C
wind
direction
speed
KPH
gust
KPH
rain 1hr
cm
rain 24hr
cm
rain mn
cm
humidity
%
barometer
mb
20260504100335 9 0.0 0.0 0.00 0.00 0.00 59 1002.7
20260504081824 11 0.0 0.0 0.00 0.00 0.00 56 1003.5
20260504081341 11 0.0 0.0 0.00 0.00 0.00 56 1003.7
20260504080839 10 0.0 0.0 0.00 0.00 0.00 57 1003.8
20260504080325 10 0.0 0.0 0.00 0.00 0.00 58 1003.8
20260504070332 11 0.0 0.0 0.00 0.00 0.00 56 1004.5
20260504050335 11 0.0 0.0 0.00 0.00 0.00 54 1005.9
20260504045832 11 0.0 0.0 0.00 0.00 0.00 53 1005.9
20260504045330 11 0.0 0.0 0.00 0.00 0.00 53 1005.9
20260504044848 11 0.0 0.0 0.00 0.00 0.00 53 1006.0
20260504044344 11 0.0 0.0 0.00 0.00 0.00 53 1006.0
20260504043841 12 0.0 0.0 0.00 0.00 0.00 53 1006.1
20260504043338 12 0.0 0.0 0.00 0.00 0.00 52 1006.2
20260504042836 12 0.0 0.0 0.00 0.00 0.00 51 1006.2
20260504042355 12 0.0 0.0 0.00 0.00 0.00 50 1006.2
20260504041831 12 0.0 0.0 0.00 0.00 0.00 49 1006.3
20260504041328 12 0.0 0.0 0.00 0.00 0.00 50 1006.4
20260504040826 12 0.0 0.0 0.00 0.00 0.00 51 1006.5
20260504040329 12 0.0 0.0 0.00 0.00 0.00 51 1006.5
20260504035828 12 0.0 0.0 0.00 0.00 0.00 51 1006.6
20260504035326 12 0.0 0.0 0.00 0.00 0.00 51 1006.6
20260504034824 12 0.0 0.0 0.00 0.00 0.00 49 1006.7
20260504034343 13 0.0 0.0 0.00 0.00 0.00 46 1006.8
20260504033840 14 0.0 0.0 0.00 0.00 0.00 44 1006.8
20260504033343 14 0.0 0.0 0.00 0.00 0.00 44 1006.9
20260504032840 13 0.0 0.0 0.00 0.00 0.00 44 1006.9
20260504032358 13 0.0 0.0 0.00 0.00 0.00 45 1007.0
20260504031855 13 0.0 0.0 0.00 0.00 0.00 47 1007.0
20260504031331 13 0.0 0.0 0.00 0.00 0.00 47 1007.1
20260504030850 13 0.0 0.0 0.00 0.00 0.00 47 1007.1
20260504030332 13 0.0 0.0 0.00 0.00 0.00 47 1007.0
20260504025829 13 0.0 0.0 0.00 0.00 0.00 46 1007.0
20260504025347 14 0.0 0.0 0.00 0.00 0.00 45 1007.1
20260504024843 14 0.0 0.0 0.00 0.00 0.00 44 1007.1
20260504024341 15 0.0 0.0 0.00 0.00 0.00 44 1007.1
20260504023839 15 0.0 0.0 0.00 0.00 0.00 42 1007.0
20260504023336 15 0.0 0.0 0.00 0.00 0.00 41 1006.9
20260504022853 15 0.0 0.0 0.00 0.00 0.00 41 1006.9
20260504022331 15 0.0 0.0 0.00 0.00 0.00 41 1006.9
20260504021828 15 0.0 0.0 0.00 0.00 0.00 42 1006.9
20260504021346 15 0.0 0.0 0.00 0.00 0.00 41 1006.9
20260504020844 15 0.0 0.0 0.00 0.00 0.00 40 1006.9
20260504020326 15 0.0 0.0 0.00 0.00 0.00 40 1006.9
20260504015824 15 0.0 0.0 0.00 0.00 0.00 40 1006.8
20260504015342 15 0.0 0.0 0.00 0.00 0.00 40 1006.9
20260504014840 15 0.0 0.0 0.00 0.00 0.00 40 1006.9
20260504014338 15 0.0 0.0 0.00 0.00 0.00 41 1006.8
20260504013839 15 0.0 0.0 0.00 0.00 0.00 40 1006.8
20260504013337 16 0.0 0.0 0.00 0.00 0.00 40 1006.8
20260504012855 16 0.0 0.0 0.00 0.00 0.00 39 1006.8
20260504012332 16 0.0 0.0 0.00 0.00 0.00 38 1006.8
20260504011850 17 0.0 0.0 0.00 0.00 0.00 38 1006.8
20260504011325 17 0.0 0.0 0.00 0.00 0.00 37 1006.9
20260504010842 17 0.0 0.0 0.00 0.00 0.00 36 1006.8
20260504010326 18 0.0 0.0 0.00 0.00 0.00 35 1006.8
20260504005843 19 0.0 0.0 0.00 0.00 0.00 33 1006.8
20260504005401 20 0.0 0.0 0.00 0.00 0.00 31 1006.8
20260504004859 20 0.0 0.0 0.00 0.00 0.00 30 1006.8
20260504004335 20 0.0 0.0 0.00 0.00 0.00 30 1006.8
20260504003853 21 0.0 0.0 0.00 0.00 0.00 28 1006.8
20260504003329 21 0.0 0.0 0.00 0.00 0.00 28 1006.8
20260504002828 21 0.0 0.0 0.00 0.00 0.00 27 1006.8
20260504002327 22 0.0 0.0 0.00 0.00 0.00 26 1006.8
20260504001825 22 0.0 0.0 0.00 0.00 0.00 26 1006.8
20260504001343 22 0.0 0.0 0.00 0.00 0.00 26 1006.7
20260504000841 22 0.0 0.0 0.00 0.00 0.00 25 1006.7
20260504000325 22 0.0 0.0 0.00 0.00 0.00 26 1006.8
20260503235843 22 0.0 0.0 0.00 0.00 0.00 26 1006.8
20260503235326 22 0.0 0.0 0.00 0.00 0.00 25 1006.8
20260503234844 23 0.0 0.0 0.00 0.00 0.00 24 1006.8
20260503234341 23 0.0 0.0 0.00 0.00 0.00 23 1006.7
20260503233838 23 0.0 0.0 0.00 0.00 0.00 23 1006.8
20260503233337 23 0.0 0.0 0.00 0.00 0.00 23 1006.9
20260503232834 23 0.0 0.0 0.00 0.00 0.00 22 1006.9
20260503232332 23 0.0 0.0 0.00 0.00 0.00 22 1006.9
20260503231829 23 0.0 0.0 0.00 0.00 0.00 22 1006.9
20260503231326 23 0.0 0.0 0.00 0.00 0.00 24 1006.8
20260503230824 23 0.0 0.0 0.00 0.00 0.00 23 1006.9
20260503230351 23 0.0 0.0 0.00 0.00 0.00 23 1006.8
20260503225828 23 0.0 0.0 0.00 0.00 0.00 23 1006.8
20260503225346 24 0.0 0.0 0.00 0.00 0.00 23 1006.8
20260503224843 24 0.0 0.0 0.00 0.00 0.00 24 1006.8
20260503224341 23 0.0 0.0 0.00 0.00 0.00 23 1006.8
20260503223839 23 0.0 0.0 0.00 0.00 0.00 23 1006.8
20260503223336 24 0.0 0.0 0.00 0.00 0.00 23 1006.9
20260503222833 24 0.0 0.0 0.00 0.00 0.00 22 1006.8
20260503222352 24 0.0 0.0 0.00 0.00 0.00 23 1006.8
20260503221833 24 0.0 0.0 0.00 0.00 0.00 22 1006.8
20260503221351 24 0.0 0.0 0.00 0.00 0.00 23 1006.8
20260503220829 24 0.0 0.0 0.00 0.00 0.00 23 1006.8
20260503220332 24 0.0 0.0 0.00 0.00 0.00 24 1006.8
20260503215849 24 0.0 0.0 0.00 0.00 0.00 23 1006.8
20260503215326 24 0.0 0.0 0.00 0.00 0.00 23 1006.8
20260503214843 24 0.0 0.0 0.00 0.00 0.00 23 1006.8
20260503214340 24 0.0 0.0 0.00 0.00 0.00 23 1006.9
20260503213837 25 0.0 0.0 0.00 0.00 0.00 23 1006.8
20260503213356 25 0.0 0.0 0.00 0.00 0.00 22 1006.9
20260503212833 24 0.0 0.0 0.00 0.00 0.00 23 1006.9
20260503212332 24 0.0 0.0 0.00 0.00 0.00 22 1006.9
20260503211830 24 0.0 0.0 0.00 0.00 0.00 22 1006.9
20260503211327 24 0.0 0.0 0.00 0.00 0.00 22 1007.0
20260503210824 24 0.0 0.0 0.00 0.00 0.00 21 1006.9
20260503210330 25 0.0 0.0 0.00 0.00 0.00 21 1007.0
20260503205829 25 0.0 0.0 0.00 0.00 0.00 22 1006.9
20260503205346 24 0.0 0.0 0.00 0.00 0.00 22 1006.9
20260503204843 24 0.0 0.0 0.00 0.00 0.00 23 1007.1
20260503204340 24 0.0 0.0 0.00 0.00 0.00 22 1007.3
20260503203857 24 0.0 0.0 0.00 0.00 0.00 23 1007.3
20260503203333 25 0.0 0.0 0.00 0.00 0.00 23 1007.2
20260503202851 24 0.0 0.0 0.00 0.00 0.00 24 1007.3
20260503202329 24 0.0 0.0 0.00 0.00 0.00 24 1007.5
20260503201847 25 0.0 0.0 0.00 0.00 0.00 24 1007.4
20260503201328 25 0.0 0.0 0.00 0.00 0.00 25 1007.4
20260503200847 24 0.0 0.0 0.00 0.00 0.00 24 1007.4
20260503200346 25 0.0 0.0 0.00 0.00 0.00 24 1007.4
20260503195827 24 0.0 0.0 0.00 0.00 0.00 25 1007.4
20260503195325 24 0.0 0.0 0.00 0.00 0.00 26 1007.4
20260503194843 23 0.0 0.0 0.00 0.00 0.00 27 1007.4
20260503194341 24 0.0 0.0 0.00 0.00 0.00 24 1007.5
20260503193840 23 0.0 0.0 0.00 0.00 0.00 26 1007.5
20260503193338 23 0.0 0.0 0.00 0.00 0.00 26 1007.5
20260503192835 23 0.0 0.0 0.00 0.00 0.00 26 1007.6
20260503192334 24 0.0 0.0 0.00 0.00 0.00 26 1007.6
20260503191831 23 0.0 0.0 0.00 0.00 0.00 27 1007.5
20260503191329 23 0.0 0.0 0.00 0.00 0.00 26 1007.5
20260503190826 23 0.0 0.0 0.00 0.00 0.00 28 1007.5
20260503190330 23 0.0 0.0 0.00 0.00 0.00 28 1007.6
20260503185827 23 0.0 0.0 0.00 0.00 0.00 27 1007.5
20260503185325 23 0.0 0.0 0.00 0.00 0.00 27 1007.5
20260503184902 23 0.0 0.0 0.00 0.00 0.00 28 1007.6
20260503184359 23 0.0 0.0 0.00 0.00 0.00 28 1007.5
20260503183835 23 0.0 0.0 0.00 0.00 0.00 28 1007.6
20260503183333 23 0.0 0.0 0.00 0.00 0.00 28 1007.6
20260503182836 22 0.0 0.0 0.00 0.00 0.00 30 1007.6
20260503182336 23 0.0 0.0 0.00 0.00 0.00 30 1007.6
20260503181833 23 0.0 0.0 0.00 0.00 0.00 29 1007.7
20260503181331 23 0.0 0.0 0.00 0.00 0.00 30 1007.7
20260503180828 23 0.0 0.0 0.00 0.00 0.00 30 1007.6
20260503180331 23 0.0 0.0 0.00 0.00 0.00 31 1007.8
20260503175829 23 0.0 0.0 0.00 0.00 0.00 31 1007.7
20260503175348 23 0.0 0.0 0.00 0.00 0.00 30 1007.7
20260503174825 22 0.0 0.0 0.00 0.00 0.00 31 1007.7
20260503174403 23 0.0 0.0 0.00 0.00 0.00 31 1007.8
20260503173840 22 0.0 0.0 0.00 0.00 0.00 31 1007.6
20260503173357 22 0.0 0.0 0.00 0.00 0.00 32 1007.8
20260503172833 22 0.0 0.0 0.00 0.00 0.00 32 1007.7
20260503172351 22 0.0 0.0 0.00 0.00 0.00 32 1007.9
20260503171830 22 0.0 0.0 0.00 0.00 0.00 32 1007.8
20260503171328 22 0.0 0.0 0.00 0.00 0.00 32 1007.9
20260503170827 22 0.0 0.0 0.00 0.00 0.00 33 1007.8
20260503170332 22 0.0 0.0 0.00 0.00 0.00 32 1008.0
20260503150834 17 0.0 0.0 0.00 0.00 0.00 45 1008.2
20260503150402 17 0.0 0.0 0.00 0.00 0.00 44 1008.3
20260503131346 12 0.0 0.0 0.00 0.00 0.00 52 1008.4
20260503130842 12 0.0 0.0 0.00 0.00 0.00 52 1008.4
20260503130326 12 0.0 0.0 0.00 0.00 0.00 53 1008.4
20260503110325 11 0.0 0.0 0.00 0.00 0.00 54 1008.6